K2BIG Weather Reports


time (UTC)temp
C
wind
direction
speed
KPH
gust
KPH
rain 1hr
cm
rain 24hr
cm
rain mn
cm
humidity
%
barometer
mb
20260509055516 8 0.0 0.0 0.00 0.03 0.00 91 1012.7
20260509055016 8 0.0 0.0 0.00 0.05 0.00 91 1012.6
20260509054516 8 0.0 0.0 0.00 0.05 0.00 91 1012.6
20260509054016 8 0.0 0.0 0.00 0.05 0.00 91 1012.7
20260509053516 8 0.0 0.0 0.00 0.08 0.00 92 1013.0
20260509053016 8 0.0 0.0 0.00 0.08 0.00 92 1013.0
20260509052516 8 0.0 0.0 0.00 0.08 0.00 91 1013.1
20260509052016 8 0.0 0.0 0.00 0.08 0.00 91 1013.1
20260509051516 8 0.0 0.0 0.00 0.08 0.00 91 1013.0
20260509051016 8 0.0 0.0 0.00 0.08 0.00 91 1013.1
20260509050516 8 0.0 0.0 0.00 0.08 0.00 90 1013.1
20260509050016 8 0.0 0.0 0.00 0.08 0.00 90 1013.1
20260509045516 8 0.0 0.0 0.00 0.08 0.00 90 1013.1
20260509045017 8 0.0 0.0 0.00 0.08 0.00 89 1013.1
20260509044517 8 0.0 0.0 0.00 0.08 0.00 89 1013.0
20260509044016 8 0.0 0.0 0.00 0.08 0.00 89 1013.0
20260509043516 8 0.0 0.0 0.00 0.08 0.00 89 1013.0
20260509043016 8 0.0 0.0 0.00 0.08 0.00 89 1013.0
20260509042516 8 0.0 0.0 0.00 0.08 0.00 89 1013.0
20260509042016 8 0.0 0.0 0.00 0.08 0.00 89 1013.0
20260509041516 9 0.0 0.0 0.00 0.08 0.00 89 1012.9
20260509041016 9 0.0 0.0 0.00 0.08 0.00 89 1013.0
20260509040516 9 0.0 0.0 0.00 0.08 0.00 89 1013.0
20260509040021 9 0.0 0.0 0.00 0.08 0.08 89 1013.1
20260509035515 9 0.0 0.0 0.00 0.08 0.08 88 1013.1
20260509035015 9 0.0 0.0 0.00 0.08 0.08 88 1013.1
20260509034515 9 0.0 0.0 0.00 0.08 0.08 88 1013.0
20260509034016 9 0.0 0.0 0.00 0.08 0.08 88 1013.1
20260509033515 9 0.0 0.0 0.00 0.08 0.08 88 1013.1
20260509033015 9 0.0 0.0 0.00 0.08 0.08 87 1013.2
20260509032515 9 0.0 0.0 0.00 0.08 0.08 87 1013.0
20260509032015 9 0.0 0.0 0.00 0.08 0.08 87 1013.0
20260509031515 9 0.0 0.0 0.00 0.08 0.08 86 1013.1
20260509031015 9 0.0 0.0 0.00 0.08 0.08 86 1013.2
20260509030515 9 0.0 0.0 0.00 0.08 0.08 85 1013.1
20260509030015 9 0.0 0.0 0.00 0.08 0.08 85 1013.1
20260509025515 9 0.0 0.0 0.00 0.08 0.08 84 1013.0
20260509025017 9 0.0 0.0 0.00 0.08 0.08 83 1012.9
20260509024517 9 0.0 0.0 0.00 0.08 0.08 83 1012.8
20260509024017 9 0.0 0.0 0.00 0.08 0.08 83 1012.9
20260509023517 9 0.0 0.0 0.00 0.08 0.08 82 1012.8
20260509023017 9 0.0 0.0 0.00 0.08 0.08 82 1012.8
20260509022517 9 0.0 0.0 0.00 0.08 0.08 82 1012.8
20260509022017 9 0.0 0.0 0.00 0.08 0.08 83 1012.8
20260509021517 9 0.0 0.0 0.00 0.08 0.08 83 1012.7
20260509021017 9 0.0 0.0 0.00 0.08 0.08 83 1012.7
20260509020517 9 0.0 0.0 0.00 0.08 0.08 83 1012.7
20260509020017 9 0.0 0.0 0.00 0.08 0.08 83 1012.8
20260509015517 9 0.0 0.0 0.00 0.08 0.08 81 1012.8
20260509015017 9 0.0 0.0 0.00 0.08 0.08 82 1012.7
20260509014517 9 0.0 0.0 0.00 0.08 0.08 82 1012.6
20260509014017 9 0.0 0.0 0.00 0.08 0.08 81 1012.5
20260509013517 9 0.0 0.0 0.00 0.08 0.08 81 1012.5
20260509013017 9 0.0 0.0 0.00 0.08 0.08 81 1012.5
20260509012516 9 0.0 0.0 0.00 0.08 0.08 80 1012.5
20260509012016 9 0.0 0.0 0.00 0.08 0.08 80 1012.4
20260509011516 9 0.0 0.0 0.00 0.08 0.08 79 1012.3
20260509011022 9 0.0 0.0 0.00 0.08 0.08 78 1012.3
20260509010517 9 0.0 0.0 0.00 0.08 0.08 77 1012.3
20260509010016 9 0.0 0.0 0.00 0.08 0.08 75 1012.3
20260509005516 10 0.0 0.0 0.00 0.08 0.08 75 1012.1
20260509005017 10 0.0 0.0 0.00 0.08 0.08 75 1012.0
20260509004516 10 0.0 0.0 0.00 0.08 0.08 72 1011.8
20260509004016 10 0.0 0.0 0.00 0.08 0.08 71 1011.7
20260509003516 11 0.0 0.0 0.00 0.08 0.08 69 1011.7
20260509003016 11 0.0 0.0 0.00 0.08 0.08 69 1011.6
20260509002517 11 0.0 0.0 0.00 0.08 0.08 67 1011.6
20260509002016 11 0.0 0.0 0.00 0.08 0.08 68 1011.5
20260509001516 12 0.0 0.0 0.00 0.08 0.08 70 1011.5
20260509001016 12 0.0 0.0 0.00 0.08 0.08 63 1011.4
20260509000516 13 0.0 0.0 0.00 0.08 0.08 65 1011.4
20260509000016 13 0.0 0.0 0.00 0.08 0.08 66 1011.4
20260508235516 13 0.0 0.0 0.00 0.08 0.08 59 1011.4
20260508235016 13 0.0 3.2 0.00 0.08 0.08 56 1011.4
20260508234516 13 225 1.6 4.8 0.00 0.08 0.08 56 1011.3
20260508234016 13 0.0 3.2 0.00 0.08 0.08 56 1011.2
20260508233516 13 225 3.2 4.8 0.00 0.08 0.08 54 1011.2
20260508233016 14 270 1.6 4.8 0.00 0.08 0.08 55 1011.3
20260508232516 14 0.0 0.0 0.00 0.08 0.08 56 1011.3
20260508232016 14 0.0 0.0 0.00 0.08 0.08 57 1011.2
20260508231516 14 0.0 0.0 0.00 0.08 0.08 57 1011.1
20260508231016 14 0.0 1.6 0.00 0.08 0.08 53 1011.0
20260508230516 15 0.0 1.6 0.00 0.08 0.08 52 1011.0
20260508230017 15 270 1.6 4.8 0.00 0.08 0.08 51 1011.0
20260508225516 15 270 1.6 4.8 0.00 0.08 0.08 51 1010.9
20260508225016 15 270 1.6 4.8 0.00 0.08 0.08 50 1010.9
20260508224516 15 270 1.6 4.8 0.00 0.08 0.08 49 1010.8
20260508224016 15 248 3.2 6.4 0.00 0.08 0.08 50 1010.8
20260508223516 15 293 1.6 9.7 0.00 0.08 0.08 51 1010.7
20260508223016 15 225 3.2 6.4 0.00 0.08 0.08 50 1010.7
20260508222516 15 225 4.8 14.5 0.00 0.08 0.08 49 1010.8
20260508222016 15 248 4.8 9.7 0.00 0.08 0.08 51 1010.8
20260508221516 15 225 4.8 8.0 0.00 0.08 0.08 51 1010.7
20260508221016 15 225 4.8 8.0 0.00 0.08 0.08 51 1010.7
20260508220516 15 203 4.8 11.3 0.00 0.08 0.08 49 1010.7
20260508220016 16 270 1.6 6.4 0.00 0.08 0.08 49 1010.7
20260508215516 16 270 4.8 14.5 0.00 0.08 0.08 48 1010.8
20260508215016 16 225 3.2 9.7 0.00 0.08 0.08 47 1010.8
20260508214516 17 225 6.4 12.9 0.00 0.08 0.08 47 1010.7
20260508214016 17 270 4.8 9.7 0.00 0.08 0.08 48 1010.7
20260508213517 16 225 4.8 9.7 0.00 0.08 0.08 48 1010.8
20260508213016 16 225 4.8 11.3 0.00 0.08 0.08 49 1010.8
20260508212516 16 293 4.8 11.3 0.00 0.08 0.08 52 1010.9
20260508212016 16 225 3.2 9.7 0.00 0.08 0.08 52 1010.8
20260508211516 16 248 4.8 9.7 0.00 0.08 0.08 48 1010.9
20260508211016 16 225 4.8 8.0 0.00 0.08 0.08 51 1010.9
20260508210516 16 270 4.8 11.3 0.00 0.08 0.08 50 1010.8
20260508210016 16 270 3.2 6.4 0.00 0.08 0.08 50 1010.8
20260508205516 16 248 4.8 12.9 0.00 0.08 0.08 51 1011.0
20260508205016 16 248 6.4 17.7 0.00 0.08 0.08 49 1011.0
20260508204516 16 248 6.4 12.9 0.00 0.08 0.08 50 1011.0
20260508204016 17 248 8.0 12.9 0.00 0.08 0.08 51 1011.0
20260508203516 17 248 6.4 11.3 0.00 0.08 0.08 50 1010.9
20260508203016 17 225 8.0 16.1 0.00 0.08 0.08 52 1010.8
20260508202516 17 225 6.4 14.5 0.00 0.08 0.08 52 1010.8
20260508202016 17 225 8.0 17.7 0.00 0.08 0.08 50 1010.9
20260508201516 17 225 4.8 12.9 0.00 0.08 0.08 54 1010.9
20260508201016 16 248 8.0 17.7 0.00 0.08 0.08 57 1011.0
20260508200516 16 270 4.8 9.7 0.00 0.08 0.08 56 1010.8
20260508200016 15 203 4.8 16.1 0.00 0.08 0.08 56 1010.8
20260508195516 15 203 6.4 12.9 0.00 0.08 0.08 60 1010.9
20260508195016 15 248 6.4 12.9 0.00 0.08 0.08 62 1011.0
20260508194516 15 203 6.4 16.1 0.00 0.08 0.08 60 1011.2
20260508194016 15 293 4.8 8.0 0.00 0.08 0.08 57 1011.1
20260508193516 15 225 4.8 11.3 0.00 0.08 0.08 58 1011.2
20260508193016 15 248 4.8 11.3 0.00 0.08 0.08 62 1011.1
20260508192516 15 225 8.0 12.9 0.00 0.08 0.08 60 1011.1
20260508192016 14 248 6.4 12.9 0.00 0.08 0.08 67 1011.2
20260508191516 13 270 6.4 14.5 0.00 0.08 0.08 63 1011.3
20260508191016 13 270 3.2 8.0 0.03 0.08 0.08 68 1011.4
20260508190516 13 225 6.4 12.9 0.03 0.08 0.08 66 1011.5
20260508190016 13 248 4.8 11.3 0.03 0.08 0.08 68 1011.4
20260508185516 13 225 6.4 14.5 0.03 0.08 0.08 68 1011.4
20260508185016 12 248 4.8 14.5 0.03 0.08 0.08 73 1011.4
20260508184516 12 248 4.8 9.7 0.03 0.08 0.08 74 1011.4
20260508184016 12 270 1.6 6.4 0.03 0.08 0.08 76 1011.3
20260508183517 11 248 3.2 8.0 0.03 0.08 0.08 79 1011.3
20260508183016 11 270 1.6 6.4 0.03 0.08 0.08 79 1011.4
20260508182516 11 248 3.2 8.0 0.03 0.08 0.08 77 1011.4
20260508182016 11 270 3.2 11.3 0.03 0.08 0.08 75 1011.4
20260508181516 12 293 4.8 14.5 0.03 0.08 0.08 74 1011.6
20260508181016 12 270 3.2 11.3 0.00 0.05 0.05 71 1011.6
20260508180516 13 315 3.2 6.4 0.00 0.05 0.05 65 1011.4
20260508180016 13 293 6.4 14.5 0.00 0.05 0.05 61 1011.3
20260508175516 13 248 6.4 11.3 0.00 0.05 0.05 60 1011.2
20260508175016 13 248 6.4 14.5 0.00 0.05 0.05 57 1011.0
20260508174516 13 225 8.0 17.7 0.00 0.05 0.05 57 1010.8
20260508174016 14 203 6.4 16.1 0.00 0.05 0.05 57 1010.8
20260508173516 15 203 9.7 19.3 0.00 0.05 0.05 55 1010.9
20260508173016 15 180 6.4 17.7 0.00 0.05 0.05 55 1010.9
20260508172516 15 225 6.4 14.5 0.00 0.05 0.05 60 1010.9
20260508172015 15 225 4.8 12.9 0.00 0.05 0.05 61 1010.9
20260508171516 14 270 6.4 14.5 0.00 0.05 0.05 58 1011.1
20260508171016 13 225 8.0 19.3 0.00 0.05 0.05 63 1011.3
20260508170515 13 248 6.4 16.1 0.00 0.05 0.05 60 1011.5
20260508170017 13 225 6.4 16.1 0.00 0.05 0.05 58 1011.4
20260508165516 13 225 1.6 6.4 0.00 0.05 0.05 59 1011.4
20260508165015 13 225 6.4 11.3 0.00 0.05 0.05 58 1011.4
20260508164516 13 248 6.4 17.7 0.00 0.05 0.05 61 1011.4
20260508164016 13 248 9.7 16.1 0.00 0.05 0.05 62 1011.6
20260508163516 13 225 8.0 17.7 0.00 0.05 0.05 61 1011.5
20260508163016 12 248 4.8 11.3 0.00 0.05 0.05 63 1011.7
20260508162516 12 248 4.8 12.9 0.00 0.05 0.05 62 1011.6
20260508162015 12 225 4.8 12.9 0.00 0.05 0.05 62 1011.7
20260508161515 12 203 4.8 9.7 0.00 0.05 0.05 62 1011.7
20260508161015 12 248 3.2 14.5 0.00 0.05 0.05 62 1011.7
20260508160515 12 225 6.4 11.3 0.00 0.05 0.05 61 1011.7
20260508160015 12 248 6.4 14.5 0.00 0.05 0.05 59 1011.7
20260508155515 12 225 6.4 12.9 0.00 0.05 0.05 60 1011.8
20260508155015 13 225 8.0 19.3 0.00 0.05 0.05 60 1011.9
20260508154515 13 248 6.4 20.9 0.00 0.05 0.05 61 1011.9
20260508154015 13 225 4.8 11.3 0.00 0.05 0.05 61 1011.8
20260508153515 13 225 6.4 14.5 0.00 0.05 0.05 59 1011.8
20260508153015 13 248 4.8 6.4 0.00 0.05 0.05 61 1011.8
20260508152516 13 203 6.4 16.1 0.00 0.05 0.05 59 1011.8
20260508152015 13 248 4.8 14.5 0.00 0.05 0.05 60 1011.8
20260508151515 13 248 6.4 16.1 0.00 0.05 0.05 59 1011.7
20260508151015 13 203 3.2 11.3 0.00 0.05 0.05 59 1011.7
20260508150515 13 203 4.8 12.9 0.00 0.05 0.05 58 1011.8
20260508150015 14 225 6.4 11.3 0.00 0.05 0.05 59 1011.8
20260508145515 14 225 4.8 16.1 0.00 0.05 0.05 56 1011.8
20260508145015 14 270 4.8 11.3 0.00 0.05 0.05 58 1011.9
20260508144515 14 225 4.8 14.5 0.00 0.05 0.05 56 1011.9
20260508144015 14 225 6.4 11.3 0.00 0.05 0.05 60 1011.9
20260508143515 13 203 3.2 8.0 0.00 0.05 0.05 62 1012.0
20260508143015 13 225 4.8 11.3 0.00 0.05 0.05 63 1012.1
20260508142515 13 0 3.2 14.5 0.00 0.05 0.05 64 1012.0
20260508142015 13 248 4.8 12.9 0.00 0.05 0.05 65 1012.2
20260508141515 13 248 4.8 9.7 0.00 0.05 0.05 65 1012.3
20260508141015 13 248 4.8 11.3 0.00 0.05 0.05 66 1012.3
20260508140515 13 270 4.8 11.3 0.00 0.05 0.05 62 1012.3
20260508140015 13 248 6.4 12.9 0.00 0.05 0.05 66 1012.3
20260508135515 13 225 6.4 12.9 0.00 0.05 0.05 69 1012.3
20260508135015 13 225 6.4 12.9 0.00 0.05 0.05 69 1012.3
20260508134515 13 225 3.2 11.3 0.00 0.05 0.05 67 1012.3
20260508134015 13 270 4.8 12.9 0.00 0.05 0.05 69 1012.2
20260508133515 12 203 4.8 16.1 0.00 0.05 0.05 69 1012.2
20260508133015 12 225 4.8 9.7 0.00 0.05 0.05 71 1012.3
20260508132515 12 225 4.8 11.3 0.00 0.05 0.05 72 1012.2
20260508132015 12 248 4.8 9.7 0.00 0.05 0.05 72 1012.2
20260508131516 12 225 4.8 11.3 0.00 0.05 0.05 72 1012.3
20260508131015 12 248 4.8 8.0 0.00 0.05 0.05 75 1012.3
20260508130515 12 225 4.8 11.3 0.00 0.05 0.05 72 1012.3
20260508130015 12 248 3.2 9.7 0.00 0.05 0.05 73 1012.4
20260508125515 11 248 3.2 8.0 0.00 0.05 0.05 72 1012.5
20260508125015 11 225 6.4 12.9 0.00 0.05 0.05 75 1012.5
20260508124515 11 225 6.4 12.9 0.00 0.05 0.05 76 1012.5
20260508124015 11 225 4.8 12.9 0.00 0.05 0.05 78 1012.5
20260508123515 11 248 4.8 9.7 0.00 0.05 0.05 77 1012.4
20260508123015 11 248 3.2 8.0 0.00 0.05 0.05 79 1012.3
20260508122515 10 293 4.8 11.3 0.00 0.05 0.05 79 1012.3
20260508122015 10 293 3.2 6.4 0.00 0.05 0.05 82 1012.2
20260508121515 9 293 1.6 4.8 0.00 0.05 0.05 85 1012.1
20260508121015 8 293 4.8 16.1 0.00 0.05 0.05 84 1011.9
20260508120515 8 248 3.2 12.9 0.00 0.05 0.05 86 1012.3
20260508120016 8 248 3.2 11.3 0.00 0.05 0.05 90 1012.4
20260508115515 7 270 3.2 9.7 0.00 0.05 0.05 93 1012.5
20260508115015 7 248 4.8 9.7 0.00 0.05 0.05 94 1012.6
20260508114515 7 248 3.2 9.7 0.00 0.05 0.05 95 1012.5
20260508114022 6 248 3.2 6.4 0.00 0.05 0.05 95 1012.4
20260508113515 6 248 4.8 8.0 0.00 0.05 0.05 96 1012.5
20260508113015 6 180 3.2 6.4 0.00 0.05 0.05 96 1012.4
20260508112515 6 225 1.6 8.0 0.00 0.05 0.05 96 1012.5
20260508112015 5 225 3.2 8.0 0.00 0.05 0.05 96 1012.5
20260508111515 5 248 3.2 6.4 0.00 0.05 0.05 96 1012.5
20260508111015 5 225 3.2 6.4 0.00 0.05 0.05 96 1012.4
20260508110515 4 0.0 4.8 0.00 0.05 0.05 96 1012.3
20260508110015 4 0.0 0.0 0.00 0.05 0.05 95 1012.2
20260508105515 4 0.0 0.0 0.00 0.05 0.05 95 1012.1
20260508105015 4 0.0 0.0 0.00 0.05 0.05 94 1011.9
20260508104515 4 0.0 0.0 0.00 0.05 0.05 95 1011.8
20260508104015 4 0.0 0.0 0.00 0.05 0.05 94 1011.8
20260508103515 4 0.0 0.0 0.00 0.05 0.05 94 1011.9
20260508103015 4 0.0 0.0 0.00 0.05 0.05 94 1011.9
20260508102515 4 0.0 0.0 0.00 0.05 0.05 94 1011.8
20260508102015 4 0.0 0.0 0.00 0.05 0.05 94 1011.8
20260508101517 4 0.0 0.0 0.00 0.05 0.05 94 1011.8
20260508101017 4 0.0 0.0 0.00 0.05 0.05 94 1011.8
20260508100517 4 0.0 0.0 0.00 0.05 0.05 94 1011.8
20260508100017 4 0.0 0.0 0.00 0.05 0.05 94 1011.8
20260508095517 4 0.0 0.0 0.00 0.05 0.05 94 1011.8
20260508095017 5 0.0 0.0 0.00 0.05 0.05 93 1011.7
20260508094517 5 0.0 0.0 0.00 0.05 0.05 93 1011.6
20260508094017 5 0.0 0.0 0.00 0.05 0.05 94 1011.6
20260508093517 5 0.0 0.0 0.00 0.05 0.05 93 1011.7
20260508093017 5 0.0 3.2 0.00 0.05 0.05 93 1011.6
20260508092517 5 0.0 3.2 0.00 0.05 0.05 93 1011.6
20260508092017 5 0.0 0.0 0.00 0.05 0.05 93 1011.6
20260508091517 5 0.0 6.4 0.00 0.05 0.05 93 1011.5
20260508091017 5 0.0 0.0 0.00 0.05 0.05 93 1011.5
20260508090517 5 0.0 0.0 0.00 0.05 0.05 93 1011.5
20260508090017 5 0.0 0.0 0.00 0.05 0.05 93 1011.5
20260508085517 5 0.0 0.0 0.00 0.05 0.05 93 1011.5
20260508085016 5 0.0 0.0 0.00 0.05 0.05 93 1011.5
20260508084517 5 0.0 3.2 0.00 0.05 0.05 93 1011.4
20260508084018 5 203 1.6 4.8 0.00 0.05 0.05 93 1011.4
20260508083517 5 0.0 6.4 0.00 0.05 0.05 92 1011.3
20260508083016 6 0.0 0.0 0.00 0.05 0.05 92 1011.4
20260508082516 6 0.0 0.0 0.00 0.05 0.05 92 1011.4
20260508082016 6 0.0 0.0 0.00 0.05 0.05 93 1011.4
20260508081517 6 0.0 0.0 0.00 0.05 0.05 92 1011.4
20260508081017 6 0.0 0.0 0.00 0.05 0.05 92 1011.4
20260508080516 6 0.0 0.0 0.00 0.05 0.05 92 1011.5
20260508080017 6 0.0 0.0 0.00 0.05 0.05 92 1011.4
20260508075517 6 180 1.6 4.8 0.00 0.05 0.05 92 1011.4
20260508075016 6 180 1.6 4.8 0.00 0.05 0.05 92 1011.3
20260508074516 6 180 3.2 8.0 0.00 0.05 0.05 92 1011.2
20260508074017 6 0.0 4.8 0.00 0.05 0.05 92 1011.2
20260508073516 6 203 1.6 4.8 0.00 0.05 0.05 92 1011.3
20260508073017 6 0.0 3.2 0.00 0.05 0.05 92 1011.2
20260508072516 6 0.0 3.2 0.00 0.05 0.05 92 1011.2
20260508072016 6 0.0 3.2 0.00 0.05 0.05 91 1011.3
20260508071516 6 203 1.6 4.8 0.00 0.05 0.05 91 1011.3
20260508071016 6 203 1.6 6.4 0.00 0.05 0.05 91 1011.4
20260508070516 6 0.0 3.2 0.00 0.05 0.05 91 1011.4
20260508070016 6 203 1.6 6.4 0.00 0.05 0.05 91 1011.4
20260508065516 7 203 1.6 9.7 0.00 0.05 0.05 91 1011.5
20260508065016 7 225 3.2 6.4 0.03 0.05 0.05 91 1011.6
20260508064516 7 270 1.6 4.8 0.03 0.05 0.05 90 1011.4
20260508064016 7 0.0 1.6 0.03 0.05 0.05 90 1011.2
20260508063516 7 0.0 3.2 0.05 0.05 0.05 90 1011.3
20260508063016 7 270 1.6 4.8 0.05 0.05 0.05 89 1011.5
20260508062516 7 0.0 4.8 0.05 0.05 0.05 89 1011.5
20260508062016 7 0.0 3.2 0.05 0.05 0.05 89 1011.4
20260508061516 7 0.0 3.2 0.05 0.08 0.05 87 1011.6
20260508061016 7 0.0 3.2 0.05 0.08 0.05 87 1011.6
20260508060517 7 270 3.2 9.7 0.05 0.08 0.05 86 1011.7
20260508060016 7 248 1.6 11.3 0.05 0.08 0.05 86 1011.8